This is the latest recevied weather packets stored in our database for station/object K1LVA. If no packets are shown the sender has not sent any weather packets the latest 10 day(s).
| Time | Temp. | Humidity | Pressure | Rain* | Wind** | Luminosity | Snow |
|---|---|---|---|---|---|---|---|
| 1778075228 | 20.56° C | 82% | 1016.1 hPa | 0 mm | - | 238 W/m² | - |
| 1778074924 | 20.56° C | 82% | 1016.2 hPa | 0 mm | - | 198 W/m² | - |
| 1778074621 | 20.56° C | 83% | 1016 hPa | 0 mm | - | 254 W/m² | - |
| 1778074318 | 20.56° C | 81% | 1016 hPa | 0 mm | - | 206 W/m² | - |
| 1778074015 | 20.56° C | 82% | 1015.9 hPa | 0 mm | - | 209 W/m² | - |
| 1778073712 | 20° C | 82% | 1016 hPa | 0 mm | - | 539 W/m² | - |
| 1778073410 | 20° C | 84% | 1016.1 hPa | 0 mm | - | 255 W/m² | - |
| 1778073106 | 20° C | 84% | 1016.2 hPa | 0 mm | - | 229 W/m² | - |
| 1778072802 | 19.44° C | 84% | 1016.2 hPa | 0 mm | - | 240 W/m² | - |
| 1778072500 | 19.44° C | 86% | 1016.1 hPa | 0 mm | - | 203 W/m² | - |
| 1778072198 | 18.89° C | 87% | 1016.2 hPa | 0 mm | - | 183 W/m² | - |
| 1778071895 | 18.89° C | 88% | 1016 hPa | 0 mm | - | 146 W/m² | - |
| 1778071593 | 18.33° C | 88% | 1016 hPa | 0 mm | - | 144 W/m² | - |
| 1778071291 | 18.33° C | 89% | 1016.1 hPa | 0 mm | - | 162 W/m² | - |
| 1778070988 | 17.78° C | 90% | 1015.8 hPa | 0 mm | - | 121 W/m² | - |
| 1778070687 | 17.78° C | 89% | 1015.8 hPa | 0 mm | - | 95 W/m² | - |
| 1778070383 | 17.78° C | 90% | 1016.1 hPa | 0 mm | - | 88 W/m² | - |
| 1778070081 | 17.22° C | 91% | 1015.9 hPa | 0 mm | - | 98 W/m² | - |
| 1778069778 | 16.67° C | 92% | 1016.1 hPa | 0 mm | - | 123 W/m² | - |
| 1778069475 | 16.67° C | 94% | 1015.9 hPa | 0 mm | - | 133 W/m² | - |
| 1778069173 | 16.11° C | 95% | 1015.9 hPa | 0 mm | - | 88 W/m² | - |
| 1778068870 | 16.11° C | 95% | 1015.4 hPa | 0 mm | - | 54 W/m² | - |
| 1778068568 | 15.56° C | 96% | 1015.6 hPa | 0 mm | - | 75 W/m² | - |
| 1778068266 | 15° C | 97% | 1015.6 hPa | 0 mm | - | 69 W/m² | - |
| 1778067963 | 15° C | 97% | 1015.7 hPa | 0 mm | - | 38 W/m² | - |
* Rain latest hour (hover to see other rain measurements)
** Current wind speed in m/s (hover to see current wind gust speed)